Location: Unspecified
(0.0000°N, 0.0000°E)
Time: 01:07:40
(UTC+00:00)

A-11 Canister half - All Passes

Search period start: 26 May 2019 00:00
Search period end: 05 June 2019 00:00
Orbit: 1517 x 1683 km, 47.2° (Epoch: 24 May)

Date Brightness Start Highest point End Pass type
(mag) Time Alt. Az. Time Alt. Az. Time Alt. Az.
26 May - 00:32:47 10° NNE 00:36:09 12° NE 00:39:33 10° ENE visible
26 May - 02:31:53 10° NNW 02:41:22 72° NE 02:51:12 10° SE visible
26 May - 04:39:00 10° W 04:46:22 24° SW 04:53:59 10° S visible
26 May - 13:19:46 10° S 13:28:15 31° SE 13:36:26 10° ENE daylight
26 May - 15:23:34 10° SW 15:33:06 56° NW 15:42:19 10° NNE daylight
27 May - 00:11:22 10° NNE 00:13:09 11° NE 00:14:57 10° NE visible
27 May - 02:09:04 10° NNW 02:18:27 66° NE 02:28:11 10° SE visible
27 May - 04:15:43 10° W 04:23:24 27° SW 04:31:20 10° S visible
27 May - 12:57:03 10° S 13:05:17 29° SE 13:13:14 10° ENE daylight
27 May - 15:00:31 10° SW 15:10:11 61° NW 15:19:31 10° NNE daylight
28 May - 01:46:16 10° NNW 01:55:32 61° NE 02:05:09 10° SE visible
28 May - 03:52:29 10° WNW 04:00:26 29° SW 04:08:39 10° S visible
28 May - 12:34:23 10° S 12:42:19 26° SE 12:50:00 10° E daylight
28 May - 14:37:29 10° SW 14:47:16 67° NW 14:56:43 10° NNE daylight
28 May - 16:50:22 10° WNW 16:52:34 11° NW 16:54:46 10° NNW daylight
29 May - 01:23:29 10° NNW 01:32:38 55° NE 01:42:07 10° SE night (unlit)
29 May - 03:29:18 10° WNW 03:37:28 32° SW 03:45:56 10° S visible
29 May - 12:11:44 10° S 12:19:20 24° SE 12:26:42 10° E daylight
29 May - 14:14:29 10° SW 14:24:23 73° NW 14:33:53 10° NNE daylight
29 May - 16:25:56 10° WNW 16:29:34 12° NW 16:33:11 10° NNW daylight
30 May - 01:00:42 10° NNW 01:09:43 51° NE 01:19:02 10° ESE night (unlit)
30 May - 03:06:08 10° WNW 03:14:31 35° SW 03:23:13 10° SSE visible
30 May - 11:49:08 10° S 11:56:21 22° SE 12:03:22 10° E daylight
30 May - 13:51:30 10° SW 14:01:27 79° NW 14:11:03 10° NE daylight
30 May - 16:01:57 10° WNW 16:06:34 14° NW 16:11:08 10° NNW daylight
31 May - 00:37:57 10° NNW 00:46:48 46° NE 00:55:57 10° ESE visible
31 May - 02:43:01 10° WNW 02:51:34 38° SW 03:00:28 10° SSE visible
31 May - 11:26:34 10° S 11:33:21 20° SE 11:39:59 10° E daylight
31 May - 13:28:31 10° SW 13:38:32 85° NW 13:48:11 10° NE daylight
31 May - 15:38:12 10° W 15:43:35 16° NW 15:48:55 10° NNW daylight
01 Jun - 00:15:13 10° NNW 00:23:54 42° NE 00:32:50 10° ESE visible
01 Jun - 02:19:55 10° WNW 02:28:38 41° SW 02:37:42 10° SSE visible
01 Jun - 11:04:03 10° S 11:10:21 18° SE 11:16:30 10° E daylight
01 Jun - 13:05:34 10° SW 13:15:37 89° SE 13:25:18 10° NE daylight
01 Jun - 15:14:34 10° W 15:20:36 18° NW 15:26:33 10° N daylight
01 Jun - 23:52:30 10° NNW 00:00:59 39° NE 00:09:41 10° ESE visible
02 Jun - 01:56:52 10° WNW 02:05:42 45° SW 02:14:54 10° SSE night (unlit)
02 Jun - 10:41:36 10° S 10:47:20 16° SE 10:52:57 10° E daylight
02 Jun - 12:42:37 10° SW 12:52:42 83° SE 13:02:23 10° NE daylight
02 Jun - 14:51:03 10° W 14:57:38 20° NW 15:04:07 10° N daylight
02 Jun - 23:29:49 10° NNW 23:38:04 35° NE 23:46:31 10° ESE visible
03 Jun - 01:33:49 10° WNW 01:42:47 49° SW 01:52:07 10° SSE night (unlit)
03 Jun - 10:19:16 10° SSE 10:24:19 15° SE 10:29:17 10° ESE daylight
03 Jun - 12:19:42 10° SW 12:29:46 77° SE 12:39:28 10° NE daylight
03 Jun - 14:27:35 10° W 14:34:40 22° NW 14:41:38 10° N daylight
03 Jun - 23:07:10 10° N 23:15:09 32° NE 23:23:20 10° ESE visible
04 Jun - 01:10:48 10° NW 01:19:52 53° SW 01:29:17 10° SSE night (unlit)
04 Jun - 09:57:04 10° SSE 10:01:17 13° SE 10:05:26 10° ESE daylight
04 Jun - 11:56:48 10° SSW 12:06:51 71° SE 12:16:31 10° NE daylight
04 Jun - 14:04:12 10° W 14:11:42 24° NW 14:19:05 10° N daylight
04 Jun - 22:44:31 10° N 22:52:14 29° NE 23:00:05 10° ESE visible
